Weather History for Mason, MI

Change the Weather History Date:

Saturday, December 8, 2012

  Actual Average (KLAN) Record (KLAN)
Temperature  
Mean Temperature 36 °F 31 °F  
Max Temperature 41 °F 37 °F 65 °F (1966)
Min Temperature 32 °F 25 °F -25 °F (1864)
Degree Days  
Heating Degree Days 28 34  
Month to date heating degree days 265  
Since 1 July heating degree days 1679  
Cooling Degree Days 0 0  
Month to date cooling degree days 0  
Year to date cooling degree days 625  
Moisture  
Dew Point 34 °F    
Average Humidity 92    
Maximum Humidity 96    
Minimum Humidity 87    
Precipitation  
Precipitation 0.00 in 0.07 in 0.81 in (1901)
Month to date precipitation 0.55  
Year to date precipitation 30.45  
Snow  
Snow 0.00 in 0.40 in 4.10 in (1977)
Month to date snowfall 2.8  
Since 1 July snowfall 6.6  
Snow Depth -    
Sea Level Pressure  
Sea Level Pressure 29.96 in    
Wind  
Wind Speed 6 mph (NNE)    
Max Wind Speed 9 mph    
Max Gust Speed -    
Visibility 7 miles    
Events Rain , Snow    
T = Trace of Precipitation, MM = Missing Value Source: NWS Daily Summary

Daily Weather History Graph

Daily Weather History Graph

Search for Another Location

Airport:

Trip Planner

Search our weather history database for the weather conditions in past years. The results will help you decide how hot, cold, wet, or windy it might be!

Date:

Astronomy

Dec. 08, 2012 Rise Set
Actual Time 7:55 AM EST 5:04 PM EST
Civil Twilight 7:23 AM EST 5:36 PM EST
Nautical Twilight 6:48 AM EST 6:11 PM EST
Astronomical Twilight 6:13 AM EST 6:45 PM EST
Moon 2:13 AM EST (12/8) 1:38 PM EST (12/8)
Length of Visible Light 10h 12m
Length of Day
9h 09m
Waning Crescent, 28% of the Moon is Illuminated
Dec 8
Waning Crescent
Dec 13
New
Dec 20
First Quarter
Dec 28
Full
Jan 4
Last Quarter

Hourly Weather History & Observations

Time (EST) Temp. Windchill Dew Point Humidity Pressure Visibility Wind Dir Wind Speed Gust Speed Precip Events Conditions
12:12 AM 41.9 °F 39.0 °F 40.3 °F 94% 29.88 in 1.2 mi NE 4.6 mph - N/A Rain Light Rain
12:33 AM 41.9 °F 38.2 °F 40.3 °F 94% 29.87 in 1.5 mi NE 5.8 mph - N/A Rain Light Rain
12:52 AM 41.9 °F 39.0 °F 40.3 °F 94% 29.87 in 1.5 mi NE 4.6 mph - N/A Rain Light Rain
1:12 AM 41.5 °F 36.4 °F 40.1 °F 95% 29.85 in 1.8 mi ENE 8.1 mph - N/A   Overcast
1:33 AM 41.5 °F 38.6 °F 40.3 °F 95% 29.85 in 2.0 mi NE 4.6 mph - N/A   Overcast
1:52 AM 41.5 °F 37.1 °F 40.1 °F 95% 29.84 in 2.0 mi NE 6.9 mph - N/A Rain Light Rain
2:12 AM 41.4 °F 36.8 °F 40.1 °F 95% 29.84 in 2.0 mi NE 6.9 mph - N/A Rain Light Rain
2:33 AM 41.4 °F 37.6 °F 40.1 °F 95% 29.84 in 2.0 mi NE 5.8 mph - N/A Rain Light Rain
2:52 AM 41.4 °F 37.6 °F 40.1 °F 95% 29.84 in 2.5 mi NE 5.8 mph - N/A Rain Light Rain
3:12 AM 41.2 °F 36.0 °F 40.1 °F 96% 29.84 in 2.5 mi ENE 8.1 mph - N/A Rain Light Rain
3:33 AM 41.0 °F 36.4 °F 39.7 °F 95% 29.84 in 2.5 mi NE 6.9 mph - N/A Rain Rain
3:52 AM 40.6 °F 36.7 °F 39.2 °F 95% 29.84 in 2.5 mi NE 5.8 mph - N/A   Light Drizzle
4:12 AM 40.3 °F 35.5 °F 38.8 °F 95% 29.83 in 3.0 mi NE 6.9 mph - N/A Rain Light Rain
4:33 AM 40.1 °F 36.1 °F 38.7 °F 95% 29.83 in 4.0 mi NE 5.8 mph - N/A   Light Drizzle
4:52 AM 39.7 °F 34.3 °F 38.3 °F 95% 29.84 in 5.0 mi NE 8.1 mph - N/A Rain Rain
5:12 AM 39.4 °F 33.2 °F 37.8 °F 94% 29.83 in 5.0 mi NNE 9.2 mph - N/A Rain Rain
5:33 AM 39.0 °F 34.8 °F 37.4 °F 94% 29.82 in 7.0 mi NE 5.8 mph - N/A Rain Light Rain
6:12 AM 37.8 °F 31.8 °F 36.5 °F 95% 29.83 in 10.0 mi NNE 8.1 mph - N/A   Overcast
6:33 AM 37.4 °F 32.8 °F 35.8 °F 94% 29.84 in 10.0 mi NE 5.8 mph - N/A   Overcast
6:52 AM 36.9 °F 30.7 °F 35.4 °F 95% 29.84 in 10.0 mi NE 8.1 mph - N/A   Overcast
7:13 AM 36.7 °F 29.9 °F 34.9 °F 93% 29.85 in 10.0 mi NNE 9.2 mph - N/A Rain Light Rain
7:33 AM 36.5 °F 30.3 °F 34.7 °F 93% 29.86 in 5.0 mi North 8.1 mph - N/A Rain Rain
7:52 AM 35.4 °F 29.7 °F 33.8 °F 94% 29.86 in 5.0 mi North 6.9 mph - N/A   Overcast
8:13 AM 34.9 °F 29.9 °F 33.3 °F 94% 29.87 in 4.0 mi North 5.8 mph - N/A Rain Light Rain
8:32 AM 34.7 °F 29.6 °F 33.1 °F 94% 29.88 in 3.0 mi North 5.8 mph - N/A Rain Light Rain
8:52 AM 34.3 °F 31.4 °F 32.9 °F 94% 29.89 in 2.0 mi North 3.5 mph - N/A Snow Light Snow
9:13 AM 34.0 °F 29.8 °F 32.9 °F 96% 29.91 in 2.0 mi North 4.6 mph - N/A Snow Light Snow
9:32 AM 33.8 °F 28.6 °F 32.5 °F 95% 29.91 in 1.8 mi North 5.8 mph - N/A Snow Light Snow
9:52 AM 33.8 °F 26.4 °F 32.5 °F 95% 29.91 in 3.0 mi NNE 9.2 mph - N/A Snow Light Snow
10:13 AM 33.8 °F 26.4 °F 32.5 °F 95% 29.92 in 4.0 mi North 9.2 mph - N/A Snow Light Snow
10:32 AM 33.8 °F 29.6 °F 32.4 °F 94% 29.93 in 4.0 mi NNE 4.6 mph - N/A Snow Light Snow
10:52 AM 34.2 °F 28.2 °F 32.9 °F 95% 29.93 in 3.0 mi North 6.9 mph - N/A   Overcast
11:13 AM 34.3 °F 28.4 °F 32.9 °F 94% 29.94 in 5.0 mi North 6.9 mph - N/A   Overcast
11:32 AM 34.0 °F 27.2 °F 32.4 °F 94% 29.94 in 5.0 mi North 8.1 mph - N/A   Overcast
11:52 AM 34.0 °F 28.0 °F 32.4 °F 94% 29.94 in 7.0 mi North 6.9 mph - N/A   Overcast
12:13 PM 34.3 °F 27.0 °F 32.7 °F 94% 29.94 in 10.0 mi North 9.2 mph - N/A   Overcast
12:32 PM 34.7 °F 28.1 °F 32.9 °F 93% 29.93 in 4.0 mi North 8.1 mph - N/A   Overcast
12:53 PM 34.3 °F 29.2 °F 32.9 °F 94% 29.94 in 4.0 mi North 5.8 mph - N/A Snow Light Snow
1:13 PM 34.9 °F 29.0 °F 33.1 °F 93% 29.94 in 10.0 mi North 6.9 mph - N/A   Overcast
1:32 PM 35.1 °F 30.1 °F 33.1 °F 92% 29.95 in 10.0 mi North 5.8 mph - N/A   Overcast
1:53 PM 35.2 °F 30.3 °F 33.1 °F 92% 29.95 in 10.0 mi North 5.8 mph - N/A   Overcast
2:13 PM 35.2 °F 30.3 °F 32.9 °F 91% 29.96 in 10.0 mi North 5.8 mph - N/A   Overcast
2:32 PM 35.8 °F 30.9 °F 33.3 °F 91% 29.96 in 10.0 mi North 5.8 mph - N/A   Overcast
2:53 PM 35.6 °F 29.9 °F 33.1 °F 91% 29.98 in 10.0 mi NNW 6.9 mph - N/A   Overcast
3:13 PM 35.4 °F 29.7 °F 32.9 °F 91% 30.00 in 10.0 mi North 6.9 mph - N/A   Overcast
3:32 PM 35.1 °F 28.6 °F 32.2 °F 89% 30.00 in 10.0 mi North 8.1 mph - N/A   Overcast
3:53 PM 34.9 °F 29.9 °F 32.2 °F 90% 30.01 in 10.0 mi North 5.8 mph - N/A   Overcast
4:13 PM 34.7 °F 29.6 °F 32.0 °F 90% 30.02 in 10.0 mi North 5.8 mph - N/A   Overcast
4:32 PM 34.7 °F 28.1 °F 31.8 °F 89% 30.04 in 10.0 mi North 8.1 mph - N/A   Overcast
4:53 PM 34.0 °F 28.8 °F 31.5 °F 90% 30.04 in 10.0 mi North 5.8 mph - N/A   Overcast
5:13 PM 33.8 °F 28.6 °F 30.7 °F 89% 30.05 in 10.0 mi North 5.8 mph - N/A   Overcast
5:32 PM 33.8 °F 27.7 °F 30.4 °F 87% 30.06 in 10.0 mi North 6.9 mph - N/A   Overcast
5:53 PM 33.4 °F 27.3 °F 30.0 °F 87% 30.06 in 10.0 mi North 6.9 mph - N/A   Overcast
6:13 PM 33.3 °F 27.9 °F 30.2 °F 89% 30.07 in 10.0 mi NNE 5.8 mph - N/A   Overcast
6:32 PM 33.1 °F 27.7 °F 30.2 °F 89% 30.09 in 10.0 mi NNE 5.8 mph - N/A   Overcast
6:53 PM 32.9 °F 27.5 °F 29.5 °F 87% 30.10 in 10.0 mi North 5.8 mph - N/A   Overcast
7:13 PM 32.9 °F 28.5 °F 29.7 °F 88% 30.11 in 10.0 mi NNE 4.6 mph - N/A   Overcast
7:32 PM 32.9 °F 29.8 °F 29.7 °F 88% 30.11 in 10.0 mi NNE 3.5 mph - N/A   Overcast
7:53 PM 32.9 °F 29.8 °F 29.8 °F 88% 30.11 in 10.0 mi NE 3.5 mph - N/A   Overcast
8:12 PM 32.9 °F 29.8 °F 29.8 °F 88% 30.12 in 10.0 mi NNE 3.5 mph - N/A   Overcast
8:33 PM 32.9 °F 29.8 °F 30.0 °F 89% 30.12 in 10.0 mi NNE 3.5 mph - N/A   Overcast
8:53 PM 32.7 °F - 30.2 °F 90% 30.13 in 10.0 mi Calm Calm - N/A   Overcast
9:13 PM 32.5 °F 28.1 °F 30.2 °F 91% 30.12 in 10.0 mi NE 4.6 mph - N/A   Overcast
9:33 PM 32.7 °F 27.3 °F 30.6 °F 92% 30.12 in 10.0 mi NE 5.8 mph - N/A   Overcast
9:53 PM 32.9 °F 27.5 °F 30.0 °F 89% 30.11 in 10.0 mi ENE 5.8 mph - N/A   Overcast
10:12 PM 32.9 °F - 30.2 °F 90% 30.14 in 10.0 mi Calm Calm - N/A   Overcast
10:33 PM 32.9 °F 29.8 °F 30.2 °F 90% 30.14 in 10.0 mi East 3.5 mph - N/A   Overcast
10:53 PM 32.9 °F - 30.6 °F 91% 30.14 in 10.0 mi Calm Calm - N/A   Overcast
11:12 PM 32.9 °F - 30.7 °F 92% 30.14 in 10.0 mi Calm Calm - N/A   Overcast
11:33 PM 32.9 °F - 30.7 °F 92% 30.15 in 10.0 mi Calm Calm - N/A   Overcast
11:52 PM 32.9 °F - 30.7 °F 92% 30.15 in 10.0 mi Calm Calm - N/A   Overcast